Time,TemperatureF,DewpointF,PressureIn,WindDirection,WindDirectionDegrees,WindSpeedMPH,WindSpeedGustMPH,Humidity,HourlyPrecipIn,Conditions,Clouds,dailyrainin,SoftwareType,DateUTC
2013-10-18 00:02:00,60.4,29.6,29.87,NNE,21,0.0,0.0,31,0.00,,SKC,0.00,VWS V14.01,2013-10-18 07:02:00,
2013-10-18 00:07:00,60.3,28.8,29.87,NNE,25,0.0,0.0,30,0.00,,SKC,0.00,VWS V14.01,2013-10-18 07:07:00,
2013-10-18 00:12:00,60.5,28.9,29.87,NNE,25,0.0,0.0,30,0.00,,SKC,0.00,VWS V14.01,2013-10-18 07:12:00,
2013-10-18 00:17:00,60.6,28.2,29.87,NNE,25,0.0,0.0,29,0.00,,SKC,0.00,VWS V14.01,2013-10-18 07:17:00,
2013-10-18 00:22:00,60.8,28.4,29.87,NNE,25,0.0,0.0,29,0.00,,SKC,0.00,VWS V14.01,2013-10-18 07:22:00,
2013-10-18 00:27:00,60.9,28.5,29.87,NNE,25,0.0,0.0,29,0.00,,SKC,0.00,VWS V14.01,2013-10-18 07:27:00,
2013-10-18 00:32:00,61.3,28.8,29.87,NNE,25,0.0,0.0,29,0.00,,SKC,0.00,VWS V14.01,2013-10-18 07:32:00,
2013-10-18 00:38:00,61.3,27.9,29.87,NNE,25,0.0,0.0,28,0.00,,SKC,0.00,VWS V14.01,2013-10-18 07:38:00,
2013-10-18 00:43:00,61.3,28.8,29.87,NNE,25,0.0,0.0,29,0.00,,SKC,0.00,VWS V14.01,2013-10-18 07:43:00,
2013-10-18 00:48:00,61.3,28.8,29.87,NNE,25,0.0,0.0,29,0.00,,SKC,0.00,VWS V14.01,2013-10-18 07:48:00,
2013-10-18 00:53:00,61.3,28.8,29.87,NNE,25,0.0,0.0,29,0.00,,SKC,0.00,VWS V14.01,2013-10-18 07:53:00,
2013-10-18 00:59:00,61.2,27.9,29.87,NNE,25,0.0,0.0,28,0.00,,SKC,0.00,VWS V14.01,2013-10-18 07:59:00,
2013-10-18 01:04:00,61.3,28.8,29.87,NNE,25,0.0,0.0,29,0.00,,SKC,0.00,VWS V14.01,2013-10-18 08:04:00,
2013-10-18 01:09:00,61.1,27.8,29.87,NNE,25,0.0,0.0,28,0.00,,SKC,0.00,VWS V14.01,2013-10-18 08:09:00,
2013-10-18 01:14:00,61.0,27.7,29.87,NNE,25,0.0,0.0,28,0.00,,SKC,0.00,VWS V14.01,2013-10-18 08:14:00,
2013-10-18 01:19:00,61.0,27.7,29.87,NNE,25,0.0,0.0,28,0.00,,SKC,0.00,VWS V14.01,2013-10-18 08:19:00,
2013-10-18 01:24:00,61.1,26.9,29.87,NNE,25,0.0,0.0,27,0.00,,SKC,0.00,VWS V14.01,2013-10-18 08:24:00,
2013-10-18 01:29:00,61.3,27.9,29.87,NNE,25,0.0,0.0,28,0.00,,SKC,0.00,VWS V14.01,2013-10-18 08:29:00,
2013-10-18 01:34:00,61.6,27.3,29.87,NNE,25,0.0,0.0,27,0.00,,SKC,0.00,VWS V14.01,2013-10-18 08:34:00,
2013-10-18 01:39:00,61.1,27.8,29.87,NNE,24,0.0,0.0,28,0.00,,SKC,0.00,VWS V14.01,2013-10-18 08:39:00,
2013-10-18 01:44:00,60.7,27.4,29.87,NNE,24,0.0,0.0,28,0.00,,SKC,0.00,VWS V14.01,2013-10-18 08:44:00,
2013-10-18 01:49:00,60.5,28.1,29.87,NNE,24,0.0,0.0,29,0.00,,SKC,0.00,VWS V14.01,2013-10-18 08:49:00,
2013-10-18 01:54:00,60.4,27.2,29.87,NNE,24,0.0,0.0,28,0.00,,SKC,0.00,VWS V14.01,2013-10-18 08:54:00,
2013-10-18 01:59:00,60.6,27.3,29.87,NNE,24,0.0,0.0,28,0.00,,SKC,0.00,VWS V14.01,2013-10-18 08:59:00,
2013-10-18 02:04:00,60.9,27.6,29.87,NNE,24,0.0,0.0,28,0.00,,SKC,0.00,VWS V14.01,2013-10-18 09:04:00,
2013-10-18 02:09:00,61.0,27.7,29.87,NNE,24,0.0,0.0,28,0.00,,SKC,0.00,VWS V14.01,2013-10-18 09:09:00,
2013-10-18 02:14:00,61.0,27.7,29.87,NNE,24,0.0,0.0,28,0.00,,SKC,0.00,VWS V14.01,2013-10-18 09:14:00,
2013-10-18 02:19:00,61.0,27.7,29.87,NNE,24,0.0,0.0,28,0.00,,SKC,0.00,VWS V14.01,2013-10-18 09:19:00,
2013-10-18 02:24:00,60.8,27.5,29.87,NNE,24,0.0,0.0,28,0.00,,SKC,0.00,VWS V14.01,2013-10-18 09:24:00,
2013-10-18 02:29:00,60.2,27.9,29.87,NNE,24,0.0,0.0,29,0.00,,SKC,0.00,VWS V14.01,2013-10-18 09:29:00,
2013-10-18 02:34:00,60.0,28.5,29.87,NNE,24,0.0,0.0,30,0.00,,SKC,0.00,VWS V14.01,2013-10-18 09:34:00,
2013-10-18 02:39:00,59.7,28.2,29.87,NNE,24,0.0,0.0,30,0.00,,SKC,0.00,VWS V14.01,2013-10-18 09:39:00,
2013-10-18 02:44:00,59.8,28.3,29.87,NNE,24,0.0,0.0,30,0.00,,SKC,0.00,VWS V14.01,2013-10-18 09:44:00,
2013-10-18 02:49:00,59.9,28.4,29.87,NNE,24,0.0,0.0,30,0.00,,SKC,0.00,VWS V14.01,2013-10-18 09:49:00,
2013-10-18 02:54:00,60.0,28.5,29.87,NNE,24,0.0,0.0,30,0.00,,SKC,0.00,VWS V14.01,2013-10-18 09:54:00,
2013-10-18 02:59:00,60.1,28.6,29.87,NNE,24,0.0,0.0,30,0.00,,SKC,0.00,VWS V14.01,2013-10-18 09:59:00,
2013-10-18 03:04:00,60.4,28.0,29.87,NNE,24,0.0,0.0,29,0.00,,SKC,0.00,VWS V14.01,2013-10-18 10:04:00,
2013-10-18 03:09:00,60.4,28.0,29.87,NNE,24,0.0,0.0,29,0.00,,SKC,0.00,VWS V14.01,2013-10-18 10:09:00,
2013-10-18 03:14:00,60.2,27.9,29.87,NNE,24,0.0,0.0,29,0.00,,SKC,0.00,VWS V14.01,2013-10-18 10:14:00,
2013-10-18 03:19:00,60.8,28.4,29.87,NNE,24,0.0,0.0,29,0.00,,SKC,0.00,VWS V14.01,2013-10-18 10:19:00,
2013-10-18 03:24:00,61.1,28.6,29.87,NNE,24,0.0,0.0,29,0.00,,SKC,0.00,VWS V14.01,2013-10-18 10:24:00,
2013-10-18 03:29:00,61.4,28.0,29.87,NNE,24,0.0,0.0,28,0.00,,SKC,0.00,VWS V14.01,2013-10-18 10:29:00,
2013-10-18 03:34:00,62.1,29.5,29.87,NNE,28,0.0,0.0,29,0.00,,SKC,0.00,VWS V14.01,2013-10-18 10:34:00,
2013-10-18 03:40:00,61.8,28.4,29.87,NNE,28,0.0,0.0,28,0.00,,SKC,0.00,VWS V14.01,2013-10-18 10:40:00,
2013-10-18 03:45:00,61.4,28.0,29.87,NNE,28,0.0,0.0,28,0.00,,SKC,0.00,VWS V14.01,2013-10-18 10:45:00,
2013-10-18 03:50:00,60.9,28.5,29.87,NNE,28,0.0,0.0,29,0.00,,SKC,0.00,VWS V14.01,2013-10-18 10:50:00,
2013-10-18 03:55:00,60.8,28.4,29.87,NNE,28,0.0,0.0,29,0.00,,SKC,0.00,VWS V14.01,2013-10-18 10:55:00,
2013-10-18 04:00:00,60.8,29.2,29.87,NNE,28,0.0,0.0,30,0.00,,SKC,0.00,VWS V14.01,2013-10-18 11:00:00,
2013-10-18 04:05:00,61.5,29.8,29.87,NE,55,0.0,0.0,30,0.00,,SKC,0.00,VWS V14.01,2013-10-18 11:05:00,
2013-10-18 04:10:00,63.9,30.2,29.87,NE,53,2.5,6.0,28,0.00,,SKC,0.00,VWS V14.01,2013-10-18 11:10:00,
2013-10-18 04:15:00,64.7,29.0,29.87,ENE,63,0.0,6.0,26,0.00,,SKC,0.00,VWS V14.01,2013-10-18 11:15:00,
2013-10-18 04:20:00,64.6,29.0,29.87,ESE,106,3.8,10.5,26,0.00,,SKC,0.00,VWS V14.01,2013-10-18 11:20:00,
2013-10-18 04:25:00,64.4,29.7,29.87,ESE,106,0.0,10.5,27,0.00,,SKC,0.00,VWS V14.01,2013-10-18 11:25:00,
2013-10-18 04:30:00,63.8,29.2,29.87,ESE,106,0.0,10.5,27,0.00,,SKC,0.00,VWS V14.01,2013-10-18 11:30:00,
2013-10-18 04:35:00,63.4,28.9,29.87,ESE,107,0.0,4.5,27,0.00,,SKC,0.00,VWS V14.01,2013-10-18 11:35:00,
2013-10-18 04:41:00,63.4,28.9,29.87,ESE,107,0.0,6.0,27,0.00,,SKC,0.00,VWS V14.01,2013-10-18 11:41:00,
2013-10-18 04:46:00,63.7,29.1,29.87,ESE,110,5.0,6.0,27,0.00,,SKC,0.00,VWS V14.01,2013-10-18 11:46:00,
2013-10-18 04:51:00,64.0,28.5,29.87,ESE,111,5.0,10.5,26,0.00,,SKC,0.00,VWS V14.01,2013-10-18 11:51:00,
2013-10-18 04:56:00,64.0,28.5,29.87,ESE,111,2.5,12.0,26,0.00,,SKC,0.00,VWS V14.01,2013-10-18 11:56:00,
2013-10-18 05:01:00,63.6,29.0,29.88,ESE,108,1.2,1.5,27,0.00,,SKC,0.00,VWS V14.01,2013-10-18 12:01:00,
2013-10-18 05:06:00,63.3,28.8,29.88,ESE,103,0.0,10.5,27,0.00,,SKC,0.00,VWS V14.01,2013-10-18 12:06:00,
2013-10-18 05:11:00,63.1,28.6,29.88,ESE,104,0.0,10.5,27,0.00,,SKC,0.00,VWS V14.01,2013-10-18 12:11:00,
2013-10-18 05:16:00,62.9,28.4,29.88,ESE,103,0.0,0.0,27,0.00,,SKC,0.00,VWS V14.01,2013-10-18 12:16:00,
2013-10-18 05:21:00,62.8,28.4,29.88,ESE,103,0.0,0.0,27,0.00,,SKC,0.00,VWS V14.01,2013-10-18 12:21:00,
2013-10-18 05:26:00,62.8,28.4,29.88,ESE,103,0.0,0.0,27,0.00,,SKC,0.00,VWS V14.01,2013-10-18 12:26:00,
2013-10-18 05:31:00,62.7,28.3,29.89,ESE,103,0.0,0.0,27,0.00,,SKC,0.00,VWS V14.01,2013-10-18 12:31:00,
2013-10-18 05:36:00,62.6,29.1,29.89,ESE,103,0.0,0.0,28,0.00,,SKC,0.00,VWS V14.01,2013-10-18 12:36:00,
2013-10-18 05:41:00,62.5,29.0,29.89,ESE,103,0.0,0.0,28,0.00,,SKC,0.00,VWS V14.01,2013-10-18 12:41:00,
2013-10-18 05:46:00,61.9,28.5,29.89,ESE,103,0.0,0.0,28,0.00,,SKC,0.00,VWS V14.01,2013-10-18 12:46:00,
2013-10-18 05:51:00,61.1,28.6,29.89,ESE,103,0.0,0.0,29,0.00,,SKC,0.00,VWS V14.01,2013-10-18 12:51:00,
2013-10-18 05:56:00,60.7,28.3,29.89,ESE,104,0.0,0.0,29,0.00,,SKC,0.00,VWS V14.01,2013-10-18 12:56:00,
2013-10-18 06:02:00,60.8,28.4,29.89,ESE,104,0.0,0.0,29,0.00,,SKC,0.00,VWS V14.01,2013-10-18 13:02:00,
2013-10-18 06:07:00,60.8,29.2,29.89,ESE,104,0.0,0.0,30,0.00,,SKC,0.00,VWS V14.01,2013-10-18 13:07:00,
2013-10-18 06:12:00,60.5,28.9,29.89,ESE,104,0.0,0.0,30,0.00,,SKC,0.00,VWS V14.01,2013-10-18 13:12:00,
2013-10-18 06:17:00,60.7,29.1,29.89,ESE,105,0.0,0.0,30,0.00,,SKC,0.00,VWS V14.01,2013-10-18 13:17:00,
2013-10-18 06:22:00,61.3,28.8,29.89,ESE,105,0.0,0.0,29,0.00,,SKC,0.00,VWS V14.01,2013-10-18 13:22:00,
2013-10-18 06:27:00,61.4,28.9,29.89,ESE,105,0.0,0.0,29,0.00,,SKC,0.00,VWS V14.01,2013-10-18 13:27:00,
2013-10-18 06:32:00,61.1,28.6,29.90,ENE,67,0.0,0.0,29,0.00,,SKC,0.00,VWS V14.01,2013-10-18 13:32:00,
2013-10-18 06:37:00,60.9,29.3,29.89,East,101,0.0,0.0,30,0.00,,SKC,0.00,VWS V14.01,2013-10-18 13:37:00,
2013-10-18 06:42:00,60.6,29.0,29.89,East,101,0.0,0.0,30,0.00,,SKC,0.00,VWS V14.01,2013-10-18 13:42:00,
2013-10-18 06:47:00,60.5,28.9,29.89,East,101,0.0,0.0,30,0.00,,SKC,0.00,VWS V14.01,2013-10-18 13:47:00,
2013-10-18 06:52:00,60.5,28.9,29.89,East,101,0.0,0.0,30,0.00,,SKC,0.00,VWS V14.01,2013-10-18 13:52:00,
2013-10-18 06:57:00,60.2,28.7,29.89,East,99,0.0,0.0,30,0.00,,SKC,0.00,VWS V14.01,2013-10-18 13:57:00,
2013-10-18 07:02:00,60.1,28.6,29.89,East,99,0.0,0.0,30,0.00,,SKC,0.00,VWS V14.01,2013-10-18 14:02:00,
2013-10-18 07:07:00,60.7,29.1,29.89,ESE,111,10.0,12.0,30,0.00,,SKC,0.00,VWS V14.01,2013-10-18 14:07:00,
2013-10-18 07:12:00,62.1,29.5,29.90,ESE,106,0.0,12.0,29,0.00,,SKC,0.00,VWS V14.01,2013-10-18 14:12:00,
2013-10-18 07:17:00,62.5,29.0,29.90,ESE,111,0.0,7.5,28,0.00,,SKC,0.00,VWS V14.01,2013-10-18 14:17:00,
2013-10-18 07:22:00,62.8,29.2,29.90,ESE,111,0.0,7.5,28,0.00,,SKC,0.00,VWS V14.01,2013-10-18 14:22:00,
2013-10-18 07:27:00,63.6,29.0,29.90,ESE,112,5.0,13.5,27,0.00,,SKC,0.00,VWS V14.01,2013-10-18 14:27:00,
2013-10-18 07:32:00,64.0,29.4,29.90,ESE,114,6.2,7.5,27,0.00,,SKC,0.00,VWS V14.01,2013-10-18 14:32:00,
2013-10-18 07:37:00,64.5,28.9,29.90,ESE,115,5.0,12.0,26,0.00,,SKC,0.00,VWS V14.01,2013-10-18 14:37:00,
2013-10-18 07:42:00,64.9,29.2,29.90,ESE,111,0.0,12.0,26,0.00,,SKC,0.00,VWS V14.01,2013-10-18 14:42:00,
2013-10-18 07:47:00,65.3,29.6,29.91,ESE,108,0.0,3.0,26,0.00,,SKC,0.00,VWS V14.01,2013-10-18 14:47:00,
2013-10-18 07:52:00,65.7,29.9,29.91,ESE,109,0.0,3.0,26,0.00,,SKC,0.00,VWS V14.01,2013-10-18 14:52:00,
2013-10-18 07:57:00,66.2,29.4,29.91,ESE,109,0.0,3.0,25,0.00,,SKC,0.00,VWS V14.01,2013-10-18 14:57:00,
2013-10-18 08:03:00,66.8,28.9,29.91,ESE,110,0.0,0.0,24,0.00,,SKC,0.00,VWS V14.01,2013-10-18 15:03:00,
2013-10-18 08:08:00,67.2,28.2,29.91,East,89,0.0,0.0,23,0.00,,SKC,0.00,VWS V14.01,2013-10-18 15:08:00,
2013-10-18 08:13:00,68.0,26.6,29.91,ENE,65,0.0,7.5,21,0.00,,SKC,0.00,VWS V14.01,2013-10-18 15:13:00,
2013-10-18 08:18:00,68.8,26.1,29.92,NNE,19,1.2,7.5,20,0.00,,SKC,0.00,VWS V14.01,2013-10-18 15:18:00,
2013-10-18 08:23:00,69.3,26.5,29.92,NE,46,1.2,7.5,20,0.00,,SKC,0.00,VWS V14.01,2013-10-18 15:23:00,
2013-10-18 08:28:00,69.9,25.8,29.92,ENE,60,0.0,7.5,19,0.00,,SKC,0.00,VWS V14.01,2013-10-18 15:28:00,
2013-10-18 08:33:00,70.3,26.1,29.92,NE,51,0.0,13.5,19,0.00,,SKC,0.00,VWS V14.01,2013-10-18 15:33:00,
2013-10-18 08:38:00,70.4,24.9,29.92,East,83,2.5,13.5,18,0.00,,SKC,0.00,VWS V14.01,2013-10-18 15:38:00,
2013-10-18 08:43:00,70.8,25.2,29.92,NE,49,5.0,13.5,18,0.00,,SKC,0.00,VWS V14.01,2013-10-18 15:43:00,
2013-10-18 08:48:00,71.2,24.2,29.92,NE,45,1.2,16.5,17,0.00,,SKC,0.00,VWS V14.01,2013-10-18 15:48:00,
2013-10-18 08:53:00,71.7,24.6,29.92,ENE,74,6.2,24.0,17,0.00,,SKC,0.00,VWS V14.01,2013-10-18 15:53:00,
2013-10-18 08:58:00,72.2,23.5,29.93,NE,34,3.8,24.0,16,0.00,,SKC,0.00,VWS V14.01,2013-10-18 15:58:00,
2013-10-18 09:03:00,72.6,22.3,29.93,ENE,57,2.5,15.0,15,0.00,,SKC,0.00,VWS V14.01,2013-10-18 16:03:00,
2013-10-18 09:09:00,73.2,22.8,29.93,ENE,57,10.0,19.5,15,0.00,,SKC,0.00,VWS V14.01,2013-10-18 16:09:00,
2013-10-18 09:14:00,73.5,23.1,29.93,East,88,6.2,19.5,15,0.00,,SKC,0.00,VWS V14.01,2013-10-18 16:14:00,
2013-10-18 09:19:00,73.9,21.7,29.93,NE,42,0.0,12.0,14,0.00,,SKC,0.00,VWS V14.01,2013-10-18 16:19:00,
2013-10-18 09:24:00,74.4,22.1,29.93,NE,49,1.2,12.0,14,0.00,,SKC,0.00,VWS V14.01,2013-10-18 16:24:00,
2013-10-18 09:29:00,74.2,23.6,29.94,NE,34,2.5,15.0,15,0.00,,SKC,0.00,VWS V14.01,2013-10-18 16:29:00,
2013-10-18 09:34:00,74.9,22.5,29.94,NE,53,0.0,10.5,14,0.00,,SKC,0.00,VWS V14.01,2013-10-18 16:34:00,
2013-10-18 09:39:00,75.2,22.8,29.94,East,92,2.5,18.0,14,0.00,,SKC,0.00,VWS V14.01,2013-10-18 16:39:00,
2013-10-18 09:44:00,75.1,22.7,29.94,ENE,73,6.2,18.0,14,0.00,,SKC,0.00,VWS V14.01,2013-10-18 16:44:00,
2013-10-18 09:49:00,75.0,20.9,29.93,ESE,104,15.0,19.5,13,0.00,,SKC,0.00,VWS V14.01,2013-10-18 16:49:00,
2013-10-18 09:54:00,74.9,22.5,29.94,ESE,109,12.5,28.5,14,0.00,,SKC,0.00,VWS V14.01,2013-10-18 16:54:00,
2013-10-18 09:59:00,75.0,22.6,29.94,ENE,71,8.8,28.5,14,0.00,,SKC,0.00,VWS V14.01,2013-10-18 16:59:00,
2013-10-18 10:04:00,74.7,22.4,29.94,East,98,12.5,28.5,14,0.00,,SKC,0.00,VWS V14.01,2013-10-18 17:04:00,
2013-10-18 10:09:00,74.8,22.5,29.94,ESE,102,8.8,31.5,14,0.00,,SKC,0.00,VWS V14.01,2013-10-18 17:09:00,
2013-10-18 10:14:00,74.5,22.2,29.94,East,80,11.2,31.5,14,0.00,,SKC,0.00,VWS V14.01,2013-10-18 17:14:00,
2013-10-18 10:19:00,75.4,22.9,29.94,ENE,75,11.2,19.5,14,0.00,,SKC,0.00,VWS V14.01,2013-10-18 17:19:00,
2013-10-18 10:24:00,75.3,22.9,29.94,East,95,2.5,22.5,14,0.00,,SKC,0.00,VWS V14.01,2013-10-18 17:24:00,
2013-10-18 10:29:00,75.9,23.3,29.94,ESE,109,8.8,22.5,14,0.00,,SKC,0.00,VWS V14.01,2013-10-18 17:29:00,
2013-10-18 10:34:00,75.7,23.2,29.94,East,95,6.2,18.0,14,0.00,,SKC,0.00,VWS V14.01,2013-10-18 17:34:00,
2013-10-18 10:36:00,75.7,21.4,29.94,North,360,7.5,34.5,13,0.00,,SKC,0.00,VWS V14.01,2013-10-18 17:36:00,
2013-10-18 10:41:00,75.6,23.1,29.94,ENE,73,0.0,34.5,14,0.00,,SKC,0.00,VWS V14.01,2013-10-18 17:41:00,
2013-10-18 10:46:00,75.5,23.0,29.94,SE,130,10.0,12.0,14,0.00,,SKC,0.00,VWS V14.01,2013-10-18 17:46:00,
2013-10-18 10:51:00,75.8,23.2,29.94,ESE,109,8.8,18.0,14,0.00,,SKC,0.00,VWS V14.01,2013-10-18 17:51:00,
2013-10-18 10:56:00,76.0,21.6,29.94,East,100,3.8,19.5,13,0.00,,SKC,0.00,VWS V14.01,2013-10-18 17:56:00,
2013-10-18 11:01:00,75.8,21.5,29.93,East,101,10.0,21.0,13,0.00,,CLR,0.00,VWS V14.01,2013-10-18 18:01:00,
2013-10-18 11:06:00,75.3,22.9,29.94,ESE,107,16.2,27.0,14,0.00,,CLR,0.00,VWS V14.01,2013-10-18 18:06:00,
2013-10-18 11:11:00,74.9,22.5,29.94,ESE,105,16.2,33.0,14,0.00,,CLR,0.00,VWS V14.01,2013-10-18 18:11:00,
2013-10-18 11:16:00,75.0,22.6,29.94,ESE,107,8.8,21.0,14,0.00,,CLR,0.00,VWS V14.01,2013-10-18 18:16:00,
2013-10-18 11:21:00,75.6,23.1,29.94,ESE,115,12.5,25.5,14,0.00,,CLR,0.00,VWS V14.01,2013-10-18 18:21:00,
2013-10-18 11:26:00,76.3,21.9,29.94,ENE,67,10.0,25.5,13,0.00,,CLR,0.00,VWS V14.01,2013-10-18 18:26:00,
2013-10-18 11:31:00,75.9,23.3,29.94,ENE,64,10.0,16.5,14,0.00,,CLR,0.00,VWS V14.01,2013-10-18 18:31:00,
2013-10-18 11:36:00,76.1,21.7,29.94,ESE,106,10.0,25.5,13,0.00,,CLR,0.00,VWS V14.01,2013-10-18 18:36:00,
2013-10-18 11:41:00,77.1,22.5,29.94,East,91,3.8,25.5,13,0.00,,CLR,0.00,VWS V14.01,2013-10-18 18:41:00,
2013-10-18 11:46:00,77.2,22.6,29.93,NNE,32,0.0,15.0,13,0.00,,CLR,0.00,VWS V14.01,2013-10-18 18:46:00,
2013-10-18 11:52:00,76.6,22.1,29.93,East,98,7.5,25.5,13,0.00,,CLR,0.00,VWS V14.01,2013-10-18 18:52:00,
2013-10-18 11:57:00,76.9,22.4,29.93,East,82,7.5,27.0,13,0.00,,CLR,0.00,VWS V14.01,2013-10-18 18:57:00,
2013-10-18 12:02:00,77.6,21.0,29.93,East,96,6.2,12.0,12,0.00,,CLR,0.00,VWS V14.01,2013-10-18 19:02:00,
2013-10-18 12:07:00,77.8,21.2,29.93,East,95,10.0,19.5,12,0.00,,CLR,0.00,VWS V14.01,2013-10-18 19:07:00,
2013-10-18 12:12:00,78.1,21.4,29.92,NE,49,11.2,22.5,12,0.00,,CLR,0.00,VWS V14.01,2013-10-18 19:12:00,
2013-10-18 12:17:00,77.1,20.6,29.92,ENE,71,16.2,22.5,12,0.00,,CLR,0.00,VWS V14.01,2013-10-18 19:17:00,
2013-10-18 12:22:00,77.0,22.4,29.92,North,355,5.0,22.5,13,0.00,,CLR,0.00,VWS V14.01,2013-10-18 19:22:00,
2013-10-18 12:27:00,77.2,22.6,29.92,NE,37,12.5,22.5,13,0.00,,CLR,0.00,VWS V14.01,2013-10-18 19:27:00,
2013-10-18 12:32:00,77.3,22.7,29.92,NE,43,3.8,16.5,13,0.00,,CLR,0.00,VWS V14.01,2013-10-18 19:32:00,
2013-10-18 12:37:00,77.5,22.8,29.92,East,80,3.8,18.0,13,0.00,,CLR,0.00,VWS V14.01,2013-10-18 19:37:00,
2013-10-18 12:42:00,77.9,23.1,29.91,ENE,61,1.2,19.5,13,0.00,,CLR,0.00,VWS V14.01,2013-10-18 19:42:00,
2013-10-18 12:47:00,78.1,23.3,29.91,NE,45,10.0,16.5,13,0.00,,CLR,0.00,VWS V14.01,2013-10-18 19:47:00,
2013-10-18 12:52:00,78.3,23.5,29.91,NE,55,6.2,19.5,13,0.00,,CLR,0.00,VWS V14.01,2013-10-18 19:52:00,
2013-10-18 12:57:00,78.5,23.6,29.91,ENE,57,2.5,19.5,13,0.00,,CLR,0.00,VWS V14.01,2013-10-18 19:57:00,
2013-10-18 13:02:00,78.9,23.9,29.91,East,100,7.5,12.0,13,0.00,,SKC,0.00,VWS V14.01,2013-10-18 20:02:00,
2013-10-18 13:07:00,79.1,24.1,29.91,NE,46,8.8,18.0,13,0.00,,SKC,0.00,VWS V14.01,2013-10-18 20:07:00,
2013-10-18 13:12:00,79.7,24.5,29.91,NNE,32,2.5,18.0,13,0.00,,SKC,0.00,VWS V14.01,2013-10-18 20:12:00,
2013-10-18 13:17:00,79.7,22.6,29.90,East,96,7.5,12.0,12,0.00,,SKC,0.00,VWS V14.01,2013-10-18 20:17:00,
2013-10-18 13:22:00,79.5,22.5,29.91,East,99,11.2,19.5,12,0.00,,SKC,0.00,VWS V14.01,2013-10-18 20:22:00,
2013-10-18 13:27:00,79.3,24.2,29.90,NE,45,7.5,21.0,13,0.00,,SKC,0.00,VWS V14.01,2013-10-18 20:27:00,
2013-10-18 13:32:00,79.4,24.3,29.90,ENE,59,13.8,16.5,13,0.00,,SKC,0.00,VWS V14.01,2013-10-18 20:32:00,
2013-10-18 13:38:00,79.0,24.0,29.90,East,92,2.5,18.0,13,0.00,,SKC,0.00,VWS V14.01,2013-10-18 20:38:00,
2013-10-18 13:43:00,78.9,23.9,29.90,NNE,22,3.8,18.0,13,0.00,,SKC,0.00,VWS V14.01,2013-10-18 20:43:00,
2013-10-18 13:48:00,79.4,22.4,29.90,NE,52,10.0,21.0,12,0.00,,SKC,0.00,VWS V14.01,2013-10-18 20:48:00,
2013-10-18 13:53:00,79.9,22.8,29.89,East,86,7.5,21.0,12,0.00,,SKC,0.00,VWS V14.01,2013-10-18 20:53:00,
2013-10-18 13:58:00,79.9,22.8,29.89,NNE,25,3.8,24.0,12,0.00,,SKC,0.00,VWS V14.01,2013-10-18 20:58:00,
2013-10-18 14:03:00,79.7,22.6,29.89,NE,53,13.8,18.0,12,0.00,,SKC,0.00,VWS V14.01,2013-10-18 21:03:00,
2013-10-18 14:08:00,80.0,20.8,29.89,NE,53,2.5,18.0,11,0.00,,SKC,0.00,VWS V14.01,2013-10-18 21:08:00,
2013-10-18 14:13:00,80.1,20.9,29.89,ENE,60,5.0,18.0,11,0.00,,SKC,0.00,VWS V14.01,2013-10-18 21:13:00,
2013-10-18 14:18:00,80.2,21.0,29.89,ENE,63,5.0,13.5,11,0.00,,SKC,0.00,VWS V14.01,2013-10-18 21:18:00,
2013-10-18 14:23:00,80.4,21.1,29.89,ENE,63,8.8,18.0,11,0.00,,SKC,0.00,VWS V14.01,2013-10-18 21:23:00,
2013-10-18 14:28:00,80.6,21.3,29.89,ENE,67,0.0,18.0,11,0.00,,SKC,0.00,VWS V14.01,2013-10-18 21:28:00,
2013-10-18 14:33:00,81.2,21.8,29.89,ENE,68,5.0,6.0,11,0.00,,SKC,0.00,VWS V14.01,2013-10-18 21:33:00,
2013-10-18 14:38:00,81.4,19.7,29.89,ENE,62,0.0,16.5,10,0.00,,SKC,0.00,VWS V14.01,2013-10-18 21:38:00,
2013-10-18 14:44:00,80.9,21.5,29.88,NE,52,5.0,16.5,11,0.00,,SKC,0.00,VWS V14.01,2013-10-18 21:44:00,
2013-10-18 14:49:00,81.3,19.6,29.88,NE,55,0.0,15.0,10,0.00,,SKC,0.00,VWS V14.01,2013-10-18 21:49:00,
2013-10-18 14:54:00,81.8,20.0,29.88,NE,48,1.2,15.0,10,0.00,,SKC,0.00,VWS V14.01,2013-10-18 21:54:00,
2013-10-18 14:59:00,82.6,20.6,29.88,NE,44,1.2,15.0,10,0.00,,SKC,0.00,VWS V14.01,2013-10-18 21:59:00,
2013-10-18 15:04:00,82.5,20.5,29.88,NE,40,5.0,10.5,10,0.00,,SKC,0.00,VWS V14.01,2013-10-18 22:04:00,
2013-10-18 15:09:00,82.2,20.3,29.88,NE,47,11.2,18.0,10,0.00,,SKC,0.00,VWS V14.01,2013-10-18 22:09:00,
2013-10-18 15:14:00,81.3,17.1,29.88,NE,55,0.0,18.0,9,0.00,,SKC,0.00,VWS V14.01,2013-10-18 22:14:00,
2013-10-18 15:19:00,81.4,19.7,29.88,ENE,61,13.8,16.5,10,0.00,,SKC,0.00,VWS V14.01,2013-10-18 22:19:00,
2013-10-18 15:24:00,81.2,19.5,29.87,ENE,74,11.2,16.5,10,0.00,,SKC,0.00,VWS V14.01,2013-10-18 22:24:00,
2013-10-18 15:29:00,80.9,19.3,29.87,ENE,67,0.0,18.0,10,0.00,,SKC,0.00,VWS V14.01,2013-10-18 22:29:00,
2013-10-18 15:34:00,80.9,19.3,29.88,NE,37,0.0,12.0,10,0.00,,SKC,0.00,VWS V14.01,2013-10-18 22:34:00,
2013-10-18 15:39:00,81.0,19.4,29.87,NE,53,3.8,13.5,10,0.00,,SKC,0.00,VWS V14.01,2013-10-18 22:39:00,
2013-10-18 15:44:00,81.1,19.4,29.87,NE,49,0.0,18.0,10,0.00,,SKC,0.00,VWS V14.01,2013-10-18 22:44:00,
2013-10-18 15:49:00,80.9,19.3,29.88,NE,51,3.8,13.5,10,0.00,,SKC,0.00,VWS V14.01,2013-10-18 22:49:00,
2013-10-18 15:54:00,80.9,19.3,29.88,NNE,31,0.0,13.5,10,0.00,,SKC,0.00,VWS V14.01,2013-10-18 22:54:00,
2013-10-18 15:59:00,80.7,16.7,29.88,NNE,21,10.0,18.0,9,0.00,,SKC,0.00,VWS V14.01,2013-10-18 22:59:00,
2013-10-18 16:05:00,80.6,19.0,29.88,NE,38,8.8,13.5,10,0.00,,SKC,0.00,VWS V14.01,2013-10-18 23:05:00,
2013-10-18 16:10:00,80.4,18.9,29.88,NE,51,8.8,15.0,10,0.00,,SKC,0.00,VWS V14.01,2013-10-18 23:10:00,
2013-10-18 16:15:00,80.2,18.8,29.88,ENE,74,6.2,19.5,10,0.00,,SKC,0.00,VWS V14.01,2013-10-18 23:15:00,
2013-10-18 16:20:00,80.0,18.6,29.88,NE,40,3.8,13.5,10,0.00,,SKC,0.00,VWS V14.01,2013-10-18 23:20:00,
2013-10-18 16:25:00,80.3,18.8,29.87,NE,34,3.8,13.5,10,0.00,,SKC,0.00,VWS V14.01,2013-10-18 23:25:00,
2013-10-18 16:30:00,80.4,18.9,29.87,North,9,12.5,15.0,10,0.00,,SKC,0.00,VWS V14.01,2013-10-18 23:30:00,
2013-10-18 16:35:00,80.3,18.8,29.88,ENE,65,3.8,13.5,10,0.00,,SKC,0.00,VWS V14.01,2013-10-18 23:35:00,
2013-10-18 16:40:00,80.1,18.7,29.88,NNE,32,1.2,13.5,10,0.00,,SKC,0.00,VWS V14.01,2013-10-18 23:40:00,
2013-10-18 16:45:00,80.3,21.1,29.87,NNE,24,5.0,13.5,11,0.00,,SKC,0.00,VWS V14.01,2013-10-18 23:45:00,
2013-10-18 16:50:00,80.2,18.8,29.87,ENE,69,3.8,13.5,10,0.00,,SKC,0.00,VWS V14.01,2013-10-18 23:50:00,
2013-10-18 16:55:00,79.8,18.4,29.87,NE,50,2.5,13.5,10,0.00,,SKC,0.00,VWS V14.01,2013-10-18 23:55:00,
2013-10-18 17:00:00,79.8,18.4,29.87,NNE,22,0.0,13.5,10,0.00,,SKC,0.00,VWS V14.01,2013-10-19 00:00:00,
2013-10-18 17:05:00,80.0,18.6,29.87,NE,52,3.8,13.5,10,0.00,,SKC,0.00,VWS V14.01,2013-10-19 00:05:00,
2013-10-18 17:10:00,79.6,18.3,29.87,NNE,26,2.5,15.0,10,0.00,,SKC,0.00,VWS V14.01,2013-10-19 00:10:00,
2013-10-18 17:16:00,79.4,18.1,29.87,NE,34,2.5,7.5,10,0.00,,SKC,0.00,VWS V14.01,2013-10-19 00:16:00,
2013-10-18 17:21:00,79.2,18.0,29.87,NNE,27,0.0,10.5,10,0.00,,SKC,0.00,VWS V14.01,2013-10-19 00:21:00,
2013-10-18 17:26:00,79.2,18.0,29.87,NNE,26,0.0,10.5,10,0.00,,SKC,0.00,VWS V14.01,2013-10-19 00:26:00,
2013-10-18 17:31:00,79.1,17.9,29.87,ENE,63,0.0,0.0,10,0.00,,SKC,0.00,VWS V14.01,2013-10-19 00:31:00,
2013-10-18 17:36:00,78.8,17.7,29.87,East,85,0.0,7.5,10,0.00,,SKC,0.00,VWS V14.01,2013-10-19 00:36:00,
2013-10-18 17:41:00,78.5,17.5,29.88,ENE,65,3.8,7.5,10,0.00,,SKC,0.00,VWS V14.01,2013-10-19 00:41:00,
2013-10-18 17:46:00,78.4,17.4,29.88,NE,54,0.0,3.0,10,0.00,,SKC,0.00,VWS V14.01,2013-10-19 00:46:00,
2013-10-18 17:51:00,78.0,17.1,29.88,NE,42,0.0,7.5,10,0.00,,SKC,0.00,VWS V14.01,2013-10-19 00:51:00,
2013-10-18 17:56:00,77.6,16.8,29.88,NE,49,3.8,10.5,10,0.00,,SKC,0.00,VWS V14.01,2013-10-19 00:56:00,
2013-10-18 18:02:00,77.3,18.8,29.88,ENE,59,0.0,0.0,11,0.00,,SKC,0.00,VWS V14.01,2013-10-19 01:02:00,
2013-10-18 18:07:00,76.9,18.4,29.88,ENE,59,0.0,0.0,11,0.00,,SKC,0.00,VWS V14.01,2013-10-19 01:07:00,
2013-10-18 18:12:00,76.2,19.9,29.88,ENE,58,0.0,0.0,12,0.00,,SKC,0.00,VWS V14.01,2013-10-19 01:12:00,
2013-10-18 18:17:00,75.6,19.5,29.88,NE,48,0.0,3.0,12,0.00,,SKC,0.00,VWS V14.01,2013-10-19 01:17:00,
2013-10-18 18:22:00,74.9,18.9,29.89,NNE,33,0.0,4.5,12,0.00,,SKC,0.00,VWS V14.01,2013-10-19 01:22:00,
2013-10-18 18:27:00,74.0,18.2,29.89,NNE,31,0.0,4.5,12,0.00,,SKC,0.00,VWS V14.01,2013-10-19 01:27:00,
2013-10-18 18:32:00,73.4,19.6,29.89,NNE,31,0.0,0.0,13,0.00,,SKC,0.00,VWS V14.01,2013-10-19 01:32:00,
2013-10-18 18:37:00,73.1,19.4,29.89,NNE,31,0.0,3.0,13,0.00,,SKC,0.00,VWS V14.01,2013-10-19 01:37:00,
2013-10-18 18:42:00,72.6,19.0,29.89,NNE,31,0.0,4.5,13,0.00,,SKC,0.00,VWS V14.01,2013-10-19 01:42:00,
2013-10-18 18:48:00,72.6,19.0,29.89,NNE,30,0.0,0.0,13,0.00,,SKC,0.00,VWS V14.01,2013-10-19 01:48:00,
2013-10-18 18:53:00,72.6,19.0,29.89,NNE,30,0.0,1.5,13,0.00,,SKC,0.00,VWS V14.01,2013-10-19 01:53:00,
2013-10-18 18:58:00,72.7,19.1,29.89,NE,37,0.0,7.5,13,0.00,,SKC,0.00,VWS V14.01,2013-10-19 01:58:00,
2013-10-18 19:03:00,72.6,19.0,29.89,NE,38,0.0,4.5,13,0.00,,SKC,0.00,VWS V14.01,2013-10-19 02:03:00,
2013-10-18 19:08:00,72.4,18.8,29.89,NE,38,0.0,4.5,13,0.00,,SKC,0.00,VWS V14.01,2013-10-19 02:08:00,
2013-10-18 19:13:00,72.3,18.7,29.89,NE,38,0.0,7.5,13,0.00,,SKC,0.00,VWS V14.01,2013-10-19 02:13:00,
2013-10-18 19:18:00,72.6,17.1,29.90,NE,46,0.0,4.5,12,0.00,,SKC,0.00,VWS V14.01,2013-10-19 02:18:00,
2013-10-18 19:23:00,72.6,17.1,29.90,NE,47,0.0,4.5,12,0.00,,SKC,0.00,VWS V14.01,2013-10-19 02:23:00,
2013-10-18 19:28:00,72.2,16.8,29.90,NE,47,0.0,4.5,12,0.00,,SKC,0.00,VWS V14.01,2013-10-19 02:28:00,
2013-10-18 19:33:00,71.9,16.6,29.90,NE,48,2.5,4.5,12,0.00,,SKC,0.00,VWS V14.01,2013-10-19 02:33:00,
2013-10-18 19:38:00,71.7,18.3,29.90,NE,55,0.0,4.5,13,0.00,,SKC,0.00,VWS V14.01,2013-10-19 02:38:00,
2013-10-18 19:43:00,71.7,18.3,29.90,ENE,57,3.8,6.0,13,0.00,,SKC,0.00,VWS V14.01,2013-10-19 02:43:00,
2013-10-18 19:49:00,71.7,18.3,29.90,NE,51,2.5,6.0,13,0.00,,SKC,0.00,VWS V14.01,2013-10-19 02:49:00,
2013-10-18 19:54:00,71.5,18.1,29.90,NE,48,3.8,6.0,13,0.00,,SKC,0.00,VWS V14.01,2013-10-19 02:54:00,
2013-10-18 19:59:00,71.5,18.1,29.90,NE,51,3.8,6.0,13,0.00,,SKC,0.00,VWS V14.01,2013-10-19 02:59:00,
2013-10-18 20:04:00,71.4,18.0,29.90,NE,49,0.0,6.0,13,0.00,,SKC,0.00,VWS V14.01,2013-10-19 03:04:00,
2013-10-18 20:09:00,71.2,17.9,29.90,NE,49,1.2,6.0,13,0.00,,SKC,0.00,VWS V14.01,2013-10-19 03:09:00,
2013-10-18 20:14:00,71.2,17.9,29.90,ENE,58,5.0,6.0,13,0.00,,SKC,0.00,VWS V14.01,2013-10-19 03:14:00,
2013-10-18 20:19:00,71.2,17.9,29.90,NE,51,2.5,4.5,13,0.00,,SKC,0.00,VWS V14.01,2013-10-19 03:19:00,
2013-10-18 20:24:00,71.1,17.8,29.90,NE,55,5.0,7.5,13,0.00,,SKC,0.00,VWS V14.01,2013-10-19 03:24:00,
2013-10-18 20:29:00,71.7,18.3,29.90,ENE,59,6.2,10.5,13,0.00,,SKC,0.00,VWS V14.01,2013-10-19 03:29:00,
2013-10-18 20:34:00,72.1,16.7,29.90,ENE,59,3.8,10.5,12,0.00,,SKC,0.00,VWS V14.01,2013-10-19 03:34:00,
2013-10-18 20:39:00,72.0,16.6,29.90,ENE,69,0.0,10.5,12,0.00,,SKC,0.00,VWS V14.01,2013-10-19 03:39:00,
2013-10-18 20:44:00,72.0,18.5,29.90,ENE,60,0.0,10.5,13,0.00,,SKC,0.00,VWS V14.01,2013-10-19 03:44:00,
2013-10-18 20:49:00,71.8,18.4,29.90,ENE,60,0.0,4.5,13,0.00,,SKC,0.00,VWS V14.01,2013-10-19 03:49:00,
2013-10-18 20:55:00,71.6,18.2,29.90,ENE,61,0.0,4.5,13,0.00,,SKC,0.00,VWS V14.01,2013-10-19 03:55:00,
2013-10-18 21:00:00,71.3,18.0,29.90,ENE,60,0.0,4.5,13,0.00,,SKC,0.00,VWS V14.01,2013-10-19 04:00:00,
2013-10-18 21:01:00,71.3,18.0,29.90,ENE,61,0.0,0.0,13,0.00,,SKC,0.00,VWS V14.01,2013-10-19 04:01:00,
2013-10-18 21:02:00,71.2,17.9,29.90,ENE,60,0.0,0.0,13,0.00,,SKC,0.00,VWS V14.01,2013-10-19 04:02:00,
2013-10-18 21:03:00,71.2,17.9,29.90,ENE,60,0.0,0.0,13,0.00,,SKC,0.00,VWS V14.01,2013-10-19 04:03:00,
2013-10-18 21:04:00,71.1,17.8,29.90,ENE,61,0.0,0.0,13,0.00,,SKC,0.00,VWS V14.01,2013-10-19 04:04:00,
2013-10-18 21:09:00,71.1,17.8,29.90,ENE,61,0.0,0.0,13,0.00,,SKC,0.00,VWS V14.01,2013-10-19 04:09:00,
2013-10-18 21:14:00,70.9,17.6,29.91,ENE,61,0.0,0.0,13,0.00,,SKC,0.00,VWS V14.01,2013-10-19 04:14:00,
2013-10-18 21:20:00,71.2,17.9,29.91,ENE,68,0.0,4.5,13,0.00,,SKC,0.00,VWS V14.01,2013-10-19 04:20:00,
2013-10-18 21:25:00,71.2,17.9,29.91,ENE,64,0.0,4.5,13,0.00,,SKC,0.00,VWS V14.01,2013-10-19 04:25:00,
2013-10-18 21:30:00,71.3,18.0,29.91,NE,53,3.8,10.5,13,0.00,,SKC,0.00,VWS V14.01,2013-10-19 04:30:00,
2013-10-18 21:35:00,71.5,18.1,29.91,ENE,59,1.2,9.0,13,0.00,,SKC,0.00,VWS V14.01,2013-10-19 04:35:00,
2013-10-18 21:40:00,71.6,18.2,29.91,NE,40,5.0,10.5,13,0.00,,SKC,0.00,VWS V14.01,2013-10-19 04:40:00,
2013-10-18 21:45:00,71.5,18.1,29.91,NE,49,0.0,10.5,13,0.00,,SKC,0.00,VWS V14.01,2013-10-19 04:45:00,
2013-10-18 21:50:00,71.2,19.6,29.91,NNE,26,0.0,6.0,14,0.00,,SKC,0.00,VWS V14.01,2013-10-19 04:50:00,
2013-10-18 21:55:00,70.7,19.2,29.91,NE,42,0.0,6.0,14,0.00,,SKC,0.00,VWS V14.01,2013-10-19 04:55:00,
2013-10-18 22:00:00,70.4,19.0,29.91,NE,47,10.0,12.0,14,0.00,,SKC,0.00,VWS V14.01,2013-10-19 05:00:00,
2013-10-18 22:05:00,70.6,19.1,29.91,NE,52,0.0,9.0,14,0.00,,SKC,0.00,VWS V14.01,2013-10-19 05:05:00,
2013-10-18 22:10:00,70.8,19.3,29.91,NE,49,6.2,12.0,14,0.00,,SKC,0.00,VWS V14.01,2013-10-19 05:10:00,
2013-10-18 22:15:00,71.1,19.5,29.92,ENE,69,6.2,12.0,14,0.00,,SKC,0.00,VWS V14.01,2013-10-19 05:15:00,
2013-10-18 22:20:00,71.1,19.5,29.92,NNE,24,3.8,9.0,14,0.00,,SKC,0.00,VWS V14.01,2013-10-19 05:20:00,
2013-10-18 22:25:00,70.8,19.3,29.92,NE,36,3.8,9.0,14,0.00,,SKC,0.00,VWS V14.01,2013-10-19 05:25:00,
2013-10-18 22:31:00,70.4,20.6,29.92,NNE,30,3.8,6.0,15,0.00,,SKC,0.00,VWS V14.01,2013-10-19 05:31:00,
2013-10-18 22:36:00,70.0,20.3,29.92,NNE,24,3.8,7.5,15,0.00,,SKC,0.00,VWS V14.01,2013-10-19 05:36:00,
2013-10-18 22:41:00,69.8,20.1,29.92,NNE,24,0.0,7.5,15,0.00,,SKC,0.00,VWS V14.01,2013-10-19 05:41:00,
2013-10-18 22:46:00,69.6,19.9,29.92,NNE,27,1.2,4.5,15,0.00,,SKC,0.00,VWS V14.01,2013-10-19 05:46:00,
2013-10-18 22:51:00,69.5,18.2,29.92,NE,41,1.2,7.5,14,0.00,,SKC,0.00,VWS V14.01,2013-10-19 05:51:00,
2013-10-18 22:56:00,69.5,18.2,29.92,NE,37,1.2,7.5,14,0.00,,SKC,0.00,VWS V14.01,2013-10-19 05:56:00,
2013-10-18 23:01:00,69.5,18.2,29.92,NE,34,0.0,1.5,14,0.00,,SKC,0.00,VWS V14.01,2013-10-19 06:01:00,
2013-10-18 23:06:00,69.4,18.2,29.92,NE,39,0.0,9.0,14,0.00,,SKC,0.00,VWS V14.01,2013-10-19 06:06:00,
2013-10-18 23:11:00,69.5,18.2,29.91,NE,36,0.0,10.5,14,0.00,,SKC,0.00,VWS V14.01,2013-10-19 06:11:00,
2013-10-18 23:16:00,69.8,18.5,29.91,NNE,22,0.0,4.5,14,0.00,,SKC,0.00,VWS V14.01,2013-10-19 06:16:00,
2013-10-18 23:21:00,69.9,18.6,29.91,NE,36,2.5,9.0,14,0.00,,SKC,0.00,VWS V14.01,2013-10-19 06:21:00,
2013-10-18 23:26:00,69.8,18.5,29.91,NE,51,0.0,9.0,14,0.00,,SKC,0.00,VWS V14.01,2013-10-19 06:26:00,
2013-10-18 23:31:00,69.8,18.5,29.91,ENE,57,0.0,4.5,14,0.00,,SKC,0.00,VWS V14.01,2013-10-19 06:31:00,
2013-10-18 23:36:00,69.7,20.0,29.91,NE,40,2.5,7.5,15,0.00,,SKC,0.00,VWS V14.01,2013-10-19 06:36:00,
2013-10-18 23:41:00,69.7,18.4,29.91,NE,48,0.0,7.5,14,0.00,,SKC,0.00,VWS V14.01,2013-10-19 06:41:00,
2013-10-18 23:46:00,69.7,18.4,29.91,NE,44,0.0,0.0,14,0.00,,SKC,0.00,VWS V14.01,2013-10-19 06:46:00,
2013-10-18 23:52:00,69.6,18.3,29.91,NNE,22,0.0,4.5,14,0.00,,SKC,0.00,VWS V14.01,2013-10-19 06:52:00,
2013-10-18 23:57:00,69.5,18.2,29.91,ENE,61,0.0,4.5,14,0.00,,SKC,0.00,VWS V14.01,2013-10-19 06:57:00,